Home > Time Zones > World Clock > Weather > France > Lens > Past weeks

Flag for France Weather past 2 weeks in Lens, France

Now
45 °F

Clear.


Feels Like: 41 °F
Forecast: 40 / 63 °F
Wind: 7 mph from Northeast

Location: Lille Airport

Current Time: Apr 21, 2015 at 5:34:50 AM

Latest Report: Apr 21, 2015 at 5:00 AM


Visibility: 10 mi

Pressure: 30.42 "Hg

Humidity: 87%

Dew point: 41 °F

Location of LensLocation

Historic Weather in Lens — Graph

°F

Lens temperature yesterday

Maximum temperature yesterday: 66 °F (at 2:30 PM)
Minimum temperature yesterday: 41 °F (at 6:30 AM)
Average temperature yesterday: 54 °F

Past Weeks' High & Low Weather Summary

 TemperatureHumidityPressure
High79 °F (Apr 15, 4:30 PM)100% (Apr 6, 4:30 AM)30.66 "Hg (Apr 6, 4:30 AM)
Low32 °F (Apr 7, 5:30 AM)23% (Apr 15, 5:30 PM)29.89 "Hg (Apr 16, 5:30 PM)
Average53 °F67%30.26 "Hg
* Reported Apr 6 4:00 AM — Apr 21 4:00 AM, Lens, Weather by CustomWeather, © 2015

Note: Actual official high and low records may vary slightly from our data, if they occured in-between our weather recording intervals... More about our weather records

Advertising

Lens weather history for previous 24 hours

 ConditionsComfort  
Time TempWeatherWind HumidityBarometerVisibility
4:00 AM
Tue, Apr 21
45 °FClear.3 mph87%30.42 "HgN/A
3:30 AM46 °FClear.6 mph82%30.42 "HgN/A
3:00 AM46 °FClear.12 mph87%30.42 "HgN/A
2:30 AM48 °FClear.10 mph82%30.42 "HgN/A
2:00 AM48 °FClear.10 mph82%30.39 "Hg10 mi
1:30 AM48 °FClear.12 mph82%30.39 "Hg10 mi
1:00 AM48 °FClear.12 mph76%30.39 "Hg10 mi
12:30 AM50 °FClear.9 mph71%30.39 "Hg10 mi
12:00 AM50 °FClear.8 mph71%30.39 "Hg10 mi
11:30 PM
Mon, Apr 20
52 °FClear.12 mph67%30.39 "Hg10 mi
11:00 PM52 °FClear.12 mph67%30.39 "Hg10 mi
10:30 PM54 °FClear.14 mph63%30.39 "Hg10 mi
10:00 PM54 °FClear.14 mph63%30.39 "Hg10 mi
9:30 PM55 °FSunny.10 mph63%30.39 "Hg10 mi
9:00 PM57 °FSunny.13 mph59%30.36 "Hg10 mi
8:30 PM59 °FSunny.13 mph55%30.36 "Hg10 mi
8:00 PM63 °FSunny.13 mph37%30.33 "Hg10 mi
7:30 PM64 °FSunny.14 mph34%30.33 "Hg10 mi
7:00 PM64 °FSunny.14 mph34%30.33 "Hg10 mi
6:30 PM66 °FPassing clouds.14 mph35%30.33 "HgN/A
6:00 PM66 °FPassing clouds.12 mph30%30.33 "HgN/A
5:30 PM66 °FSunny.12 mph30%30.33 "Hg10 mi
5:00 PM66 °FSunny.13 mph28%30.33 "Hg10 mi
4:30 PM66 °FPassing clouds.14 mph26%30.33 "HgN/A
4:00 PM66 °FPassing clouds.12 mph30%30.36 "HgN/A
3:30 PM66 °FSunny.13 mph30%30.36 "Hg10 mi
3:00 PM66 °FSunny.10 mph32%30.36 "Hg10 mi
2:30 PM66 °FSunny.13 mph30%30.36 "Hg10 mi
2:00 PM64 °FPassing clouds.13 mph37%30.36 "HgN/A
1:30 PM63 °FPassing clouds.12 mph42%30.36 "HgN/A
1:00 PM63 °FSunny.14 mph42%30.36 "Hg10 mi
12:30 PM63 °FPassing clouds.12 mph42%30.36 "HgN/A
12:00 PM63 °FSunny.12 mph39%30.36 "Hg10 mi
11:30 AM59 °FSunny.10 mph42%30.33 "Hg10 mi
11:00 AM57 °FPassing clouds.8 mph51%30.33 "HgN/A
10:30 AM55 °FPassing clouds.8 mph55%30.33 "HgN/A
10:00 AM54 °FSunny.7 mph58%30.33 "Hg10 mi
9:00 AM48 °FSunny.7 mph66%30.30 "Hg10 mi
8:00 AM45 °FSunny.5 mph76%30.30 "Hg10 mi
7:30 AM43 °FClear.3 mph81%30.27 "Hg10 mi
7:00 AM41 °FClear.2 mph87%30.27 "Hg10 mi
6:30 AM41 °FClear.5 mph87%30.27 "Hg10 mi
6:00 AM43 °FClear.5 mph81%30.24 "Hg10 mi
5:30 AM43 °FClear.8 mph81%30.24 "Hg10 mi
5:00 AM43 °FClear.9 mph81%30.24 "Hg10 mi
Weather by CustomWeather, © 2015

See weather overviewHow to use our weather pages